WetterOnline ( https://www.wetteronline.de )

Wetter aktuell Trier

Aktuelles Wetter: Trier/Petrisberg (273m)

6-stündlich | Neueste Meldungen
Ortszeit Temperatur Wetter
So, 09.08. 20:00 27.0° C wolkenlos
So, 09.08. 14:00 34.6° C leicht bewölkt
So, 09.08. 8:00 21.7° C wolkig
So, 09.08. 2:00 24.4° C wolkenlos
Sa, 08.08. 20:00 34.4° C wolkenlos
Sa, 08.08. 14:00 37.0° C fast wolkenlos
Sa, 08.08. 8:00 20.0° C wolkenlos
Sa, 08.08. 2:00 22.6° C wolkenlos
Ortszeit Temperatur Wetter
So, 09.08. 20:00 27.0° C wolkenlos
So, 09.08. 19:50 27.0° C wolkenlos
So, 09.08. 19:40 27.4° C wolkenlos
So, 09.08. 19:30 28.4° C leicht bewölkt
So, 09.08. 19:20 28.4° C leicht bewölkt
So, 09.08. 19:10 28.8° C leicht bewölkt
So, 09.08. 19:00 28.5° C bewölkt
So, 09.08. 18:30 28.4° C leichter Regen
So, 09.08. 18:00 -° C bedeckt
So, 09.08. 17:30 35.8° C bewölkt
So, 09.08. 17:00 35.3° C wolkig
So, 09.08. 16:30 38.3° C bewölkt
Ortszeit Relative Feuchte Sichtweite
So, 09.08. 20:00 54% 40 km
So, 09.08. 14:00 25% 50 km
So, 09.08. 8:00 64% 35 km
So, 09.08. 2:00 52% 45 km
Sa, 08.08. 20:00 24% 55 km
Sa, 08.08. 14:00 23% 45 km
Sa, 08.08. 8:00 66% 45 km
Sa, 08.08. 2:00 57% 55 km
Ortszeit Relative Feuchte Sichtweite
So, 09.08. 20:00 54% 40 km
So, 09.08. 19:50 54% -
So, 09.08. 19:40 53% -
So, 09.08. 19:30 48% 40 km
So, 09.08. 19:20 48% -
So, 09.08. 19:10 45% -
So, 09.08. 19:00 47% 35 km
So, 09.08. 18:30 50% 28 km
So, 09.08. 18:00 - 40 km
So, 09.08. 17:30 21% 50 km
So, 09.08. 17:00 21% 50 km
So, 09.08. 16:30 19% 50 km
Ortszeit Niederschlagsmenge Niederschlagsart
So, 09.08. 20:00 0.1 l/m2 in 12 Std. Regen
So, 09.08. 14:00 0.0 l/m2 in 6 Std. -
So, 09.08. 8:00 0.0 l/m2 in 12 Std. -
So, 09.08. 2:00 0.0 l/m2 in 6 Std. -
Sa, 08.08. 20:00 0.0 l/m2 in 12 Std. -
Sa, 08.08. 14:00 0.0 l/m2 in 6 Std. -
Sa, 08.08. 8:00 0.0 l/m2 in 12 Std. -
Sa, 08.08. 2:00 0.0 l/m2 in 6 Std. -
Ortszeit Niederschlagsmenge Niederschlagsart
So, 09.08. 20:00 0.0 l/m2 in 1 Std. Regen
So, 09.08. 19:50 keine Meldung -
So, 09.08. 19:40 keine Meldung -
So, 09.08. 19:30 0.0 l/m2 in 1 Std. -
So, 09.08. 19:20 keine Meldung -
So, 09.08. 19:10 keine Meldung -
So, 09.08. 19:00 0.1 l/m2 in 1 Std. Regen
So, 09.08. 18:30 0.1 l/m2 in 1 Std. -
So, 09.08. 18:00 0.0 l/m2 in 1 Std. -
So, 09.08. 17:30 0.0 l/m2 in 1 Std. -
So, 09.08. 17:00 0.0 l/m2 in 1 Std. -
So, 09.08. 16:30 0.0 l/m2 in 1 Std. -
Ortszeit Stärke Spitze Richtung
km/h Bft. km/h Grad Sektor
So, 09.08. 20:00 17 3 52 20° N
So, 09.08. 14:00 4 1 18 300° NW
So, 09.08. 8:00 6 1 11 30° NO
So, 09.08. 2:00 7 2 18 20° N
Sa, 08.08. 20:00 4 1 25 280° W
Sa, 08.08. 14:00 14 3 29 170° S
Sa, 08.08. 8:00 4 1 18 20° N
Sa, 08.08. 2:00 6 1 19 360° N
Ortszeit Stärke Spitze Richtung
km/h Bft. km/h Grad Sektor
So, 09.08. 20:00 17 3 33 20° N
So, 09.08. 19:50 17 3 - 20° N
So, 09.08. 19:40 20 4 - 20° N
So, 09.08. 19:30 19 3 33 30° NO
So, 09.08. 19:20 19 3 - 30° NO
So, 09.08. 19:10 14 3 - 20° N
So, 09.08. 19:00 13 3 39 30° NO
So, 09.08. 18:30 20 4 39 30° NO
So, 09.08. 18:00 25 4 54 20° N
So, 09.08. 17:30 7 2 14 60° NO
So, 09.08. 17:00 9 2 28 60° NO
So, 09.08. 16:30 14 3 29 180° S
Ortszeit Untergrenze Bedeckung Gattung
total tief tief mittel hoch
So, 09.08. 20:00 - 0/8 0/8 - - -
So, 09.08. 14:00 2700 m 2/8 1/8 - - -
So, 09.08. 8:00 4500 m 8/8 8/8 - - -
So, 09.08. 2:00 - 0/8 0/8 - - -
Sa, 08.08. 20:00 - 0/8 0/8 - - -
Sa, 08.08. 14:00 2400 m 1/8 1/8 - - -
Sa, 08.08. 8:00 - 0/8 0/8 - - -
Sa, 08.08. 2:00 - 0/8 0/8 - - -
Ortszeit Bedeckungsgrad in Achtel und Wolkenuntergrenze
So, 09.08. 20:00 keine Wolken
So, 09.08. 19:50 keine Wolken
So, 09.08. 19:40 keine Wolken
So, 09.08. 19:30 2(3900m)
So, 09.08. 19:20 2(3900m)
So, 09.08. 19:10 3(3900m) 4(4500m) 4(6000m)
So, 09.08. 19:00 2(3900m) 7(5700m) 7(6300m)
So, 09.08. 18:30 4(2700m) 5(3300m) 8(5700m)
So, 09.08. 18:00 8(2700m) 8(4800m)
So, 09.08. 17:30 5(3000m) 7(3300m)
So, 09.08. 17:00 4(3000m)
So, 09.08. 16:30 7(2700m)
Ortszeit Luftdruck NN (hPa) Tendenz (hPa in 3 Std.)
So, 09.08. 20:00 1014 + 0,1
So, 09.08. 14:00 1015 - 1,8
So, 09.08. 8:00 1018 + 0,4
So, 09.08. 2:00 1017 + 0,1
Sa, 08.08. 20:00 1016 - 0,8
Sa, 08.08. 14:00 1017 - 1,0
Sa, 08.08. 8:00 1020 + 0,9
Sa, 08.08. 2:00 1019 + 0,5
Ortszeit Luftdruck NN (hPa) Tendenz (hPa in 3 Std.)
So, 09.08. 20:00 1014 + 0,1
So, 09.08. 19:50 1014 keine Meldung
So, 09.08. 19:40 1014 keine Meldung
So, 09.08. 19:30 1014 - 0,2
So, 09.08. 19:20 1014 keine Meldung
So, 09.08. 19:10 1014 keine Meldung
So, 09.08. 19:00 1014 - 0,2
So, 09.08. 18:30 1015 - 0,1
So, 09.08. 18:00 1015 - 0,3
So, 09.08. 17:30 1013 - 1,1
So, 09.08. 17:00 1013 - 1,4
So, 09.08. 16:30 1013 - 1,5
Ortszeit Schneehöhe (cm)
So, 09.08. 20:00 -
So, 09.08. 14:00 -
So, 09.08. 8:00 -
So, 09.08. 2:00 -
Sa, 08.08. 20:00 -
Sa, 08.08. 14:00 -
Sa, 08.08. 8:00 -
Sa, 08.08. 2:00 -
Ortszeit Schneehöhe (cm)
So, 09.08. 20:00 -
So, 09.08. 19:50 -
So, 09.08. 19:40 -
So, 09.08. 19:30 -
So, 09.08. 19:20 -
So, 09.08. 19:10 -
So, 09.08. 19:00 -
So, 09.08. 18:30 -
So, 09.08. 18:00 -
So, 09.08. 17:30 -
So, 09.08. 17:00 -
So, 09.08. 16:30 -
Link zu dieser Seite / Seite empfehlen

Das Wetter in ...